www.pogodaiklimat.ru

Погода и климат >> Архив погоды >> Индонезия >> Роти


ПОГОДА на Роти

  • Прогноз погоды на Роти
  • Монитор погоды на Роти

АРХИВ ПОГОДЫ на Роти

Время (UTC), дата Ветер
(напр.,м/с)
 
Видим.   Явления Облачность Т
(С)
Тd
(С)
f
(%)
Тe
(С)
Тes
(С)
Комфортность P
(гПа)
Po
(гПа)
Тmin
(С)
Tmax
(С)
R
(мм)
R24
(мм)
S
(см)
15 9.09 В 3 н/о н/о +23.6 +20.6 83 +29 +29 душно 1019.7 998.6
18 9.09 штиль 0 н/о н/о +22.6 +20.7 89 +29 +29 очень
душно
1018.9 997.8
21 9.09 ЮВ 1 н/о н/о +19.0 +17.9 93 +22 +22 комфорт 1019.4 998.3
00 10.09 Ю 4 10 км 6/5 600 м
[Cu hum Ci fib]
+25.6 +20.8 75 +32 +34 очень
душно
1021.0 999.9 +19.0
03 10.09 ЮВ 5 10 км 6/5 600 м
[Cu hum Ci fib]
+28.4 +20.5 62 +35 +40 очень
душно
1020.8 999.7
06 10.09 ЮВ 6 10 км 6/5 600 м
[Cu hum Ci fib]
+29.6 +19.8 56 +36 +38 очень
душно
1018.5 997.4
09 10.09 ЮВ 6 н/о н/о +27.2 +18.4 59 +32 +32 очень
душно
1018.4 997.3
12 10.09 ЮВ 7 н/о н/о +25.0 +20.0 74 +31 +31 очень
душно
1020.4 999.3 +29.6
15 10.09 ЮВ 6 н/о н/о +24.4 +20.4 78 +30 +30 очень
душно
1020.6 999.5
18 10.09 В 5 н/о н/о +23.9 +19.6 77 +29 +29 душно 1019.6 998.5
21 10.09 В 4 н/о н/о +23.1 +17.8 72 +29 +29 очень
душно
1020.4 999.3
00 11.09 В 5 н/о н/о +26.8 +16.0 52 +30 +33 душно 1022.2 1001.1 +22.2 +28.5
03 11.09 В 6 10 км 1/1 600 м
[Cu hum Ci fib]
+30.0 +10.2 29 +30 +38 жарко 1021.4 1000.3
06 11.09 ЮВ 7 10 км 3/3 600 м
[Cu hum Ci fib]
+28.0 +15.5 47 +31 +34 душно 1019.0 997.9
09 11.09 ЮВ 8 10 км 1/1 600 м
[Cu hum Ci fib]
+26.0 +15.8 53 +29 +29 душно 1018.5 997.4
12 11.09 ЮВ 6 10 км 1/1 600 м
[Cu hum Ci fib]
+24.2 +16.7 63 +28 +28 душно 1020.8 999.6 +29.4
15 11.09 ЮВ 3 10 км 4/3 600 м
[Cu hum Ci fib]
+23.6 +16.7 65 +27 +27 жарко 1021.6 1000.5
18 11.09 В 4 н/о н/о +23.5 +16.3 64 +27 +27 душно 1020.1 998.9
21 11.09 ЮВ 1 10 км 1/1 600 м
[Cu hum Ci fib]
+23.0 +18.1 74 +29 +29 очень
душно
1020.9 999.8
00 12.09 В 7 н/о н/о +26.8 +16.9 55 +31 +31 душно 1022.0 1000.8 +23.9 +30.0
03 12.09 В 8 10 км 3/1 600 м
[Cu hum Ci fib]
+29.8 +12.8 35 +31 +34 жарко 1021.5 1000.3
06 12.09 В 8 10 км 1/1 600 м
[Cu hum Ci fib]
+29.2 +16.3 46 +33 +35 очень
душно
1018.7 997.7
09 12.09 ЮВ 9 10 км 1/1 600 м
[Cu hum Ci fib]
+25.8 +18.1 62 +30 +30 душно 1018.7 997.7
12 12.09 В 8 10 км 1/1 600 м
[Cu hum Ci fib]
+24.4 +18.7 71 +29 +29 душно 1020.4 999.4 +31.2
15 12.09 В 4 10 км 1/1 600 м
[Cu hum Ci fib]
+24.0 +17.9 69 +28 +28 душно 1021.3 1000.2
18 12.09 В 3 н/о н/о +23.2 +16.6 66 +28 +28 душно 1019.9 998.8
21 12.09 В 5 10 км 1/1 600 м
[Cu hum Ci fib]
+23.0 +18.1 74 +29 +29 очень
душно
1020.9 999.8
00 13.09 В 5 10 км 1/1 600 м
[Cu hum Ci fib]
+26.8 +16.8 54 +30 +34 душно 1022.3 1001.1 +20.0
03 13.09 В 7 10 км 1/1 600 м
[Cu hum Ci fib]
+31.2 +13.9 35 +33 +38 жарко 1021.2 1000.1
06 13.09 В 6 10 км 1/1 600 м
[Cu hum Ci fib]
+29.4 +15.4 43 +32 +37 душно 1018.5 997.5
09 13.09 ЮВ 9 10 км 1/1 600 м
[Cu hum Ci fib]
+26.0 +18.4 63 +31 +31 очень
душно
1018.3 997.3
12 13.09 В 4 10 км 4/3 600 м
[Cu hum Ci fib]
+24.4 +19.4 74 +30 +30 очень
душно
1020.3 999.2 +31.2
15 13.09 0 н/о н/о +24.0 +19.8 77 1020.6 999.4
18 13.09 В 4 10 км 1/1 600 м
[Cu hum Ci fib]
+23.8 +18.7 73 +28 +28 душно 1019.4 998.3
21 13.09 В 2 н/о н/о +21.9 +18.3 80 +27 +27 душно 1019.9 998.8
00 14.09 СВ 5 10 км 1/1 600 м
[Cu hum Ci fib]
+26.4 +17.2 57 +30 +33 душно 1022.0 1000.9 +21.4
03 14.09 В 6 10 км 1/1 600 м
[Cu hum Ci fib]
+30.8 +14.7 38 +33 +41 душно 1020.8 999.7
06 14.09 СВ 7 10 км 1/1 600 м
[Cu hum Ci fib]
+31.8 +15.7 38 +34 +38 душно 1018.9 997.8
09 14.09 ЮВ 6 10 км 1/1 600 м
[Cu hum Ci fib]
+26.4 +18.9 63 +31 +32 душно 1018.9 997.8
12 14.09 В 6 н/о н/о +24.4 +20.1 77 +30 +30 очень
душно
1020.2 999.1 +31.4
15 14.09 В 3 10 км 4/4 600 м
[Cu hum Ci fib]
+23.8 +20.0 79 +29 +29 душно 1019.9 998.8
18 14.09 В 3 10 км 4/3 600 м
[Cu hum Ci fib]
+23.8 +19.4 76 +29 +29 душно 1018.8 997.7
21 14.09 В 3 10 км 1/1 600 м
[Cu hum Ci fib]
+22.0 +18.9 83 +27 +27 душно 1019.4 998.3
00 15.09 СВ 7 10 км 1/1 600 м
[Cu hum Ci fib]
+26.6 +16.6 54 +30 +32 душно 1020.6 999.5 +21.4
03 15.09 В 7 10 км 1/1 600 м
[Cu hum Ci fib]
+29.2 +15.9 45 +32 +37 душно 1019.8 998.7
06 15.09 В 5 н/о н/о +28.3 +18.1 54 +33 +33 очень
душно
1017.6 996.5
09 15.09 В 5 н/о н/о +25.7 +18.4 64 +30 +30 душно 1017.7 996.6
12 15.09 В 3 10 км 1/1 600 м
[Cu hum Ci fib]
+24.2 +19.5 75 +29 +29 душно 1019.5 998.4 +31.0
15 15.09 ЮВ 5 10 км 1/1 600 м
[Cu hum Ci fib]
+24.0 +20.0 78 +29 +29 душно 1019.3 998.2
18 15.09 В 2 10 км 1/1 600 м
[Cu hum Ci fib]
+23.0 +19.9 83 +30 +30 очень
душно
1018.4 997.4
21 15.09 В 4 10 км 1/1 600 м
[Cu hum Ci fib]
+22.2 +19.0 82 +28 +28 душно 1018.8 997.7
00 16.09 СВ 6 н/о н/о +25.9 +17.8 61 +30 +30 душно 1019.7 998.6 +23.7 +28.8
03 16.09 В 6 н/о н/о +28.6 +16.9 49 +32 +32 душно 1018.8 997.7
06 16.09 В 7 н/о н/о +28.3 +17.4 52 +32 +32 душно 1016.6 995.5
09 16.09 В 6 н/о н/о +25.4 +17.9 63 +30 +30 душно 1016.5 995.4

 

Местоположение метеостанции Роти (Индонезия): широта -10.73 долгота 123.07 высота над уровнем моря 1 м.

В архиве по умолчанию представлена погода на Роти за последнюю неделю. Архивные данные за месяц целиком и за предыдущие месяцы, начиная с января 2011 года, Вы можете получить, выбрав интересующий диапазон дат из раскрывающегося списка и нажав кнопку "Ввод!".


*Определитесь, кто Вы:
робот инопланетянин человек

Внимание! Время в таблицах - всемирное. Для получения местного времени необходимо прибавить поправку, которая равна 8 ч.

Смотрите также архив погоды в соседних городах и на ближайших метеорологических станциях:

Погода в Купанге (Индонезия) (90 км)
Погода в Сабу (Индонезия) (138 км)
Погода в Маумере (Индонезия) (250 км)
Погода в Ларантуке (Индонезия) (274 км)
Погода в Аэропорту Умбу Механг Кунда (Индонезия) (322 км)
Погода на Алоре (Индонезия) (324 км)
Погода в Рутенге (Индонезия) (370 км)
Погода на Острове Брауз (Западная Австралия, Австралия) (380 км)
Погода на Острове Троутон (Западная Австралия, Австралия) (474 км)
Погода в Трускотте (Западная Австралия, Австралия) (518 км)

Пояснения к столбцам:

Ветер - указаны скорость ветра в м/с - средняя за 10 мин, порывы в срок и между сроками (в фигурных скобках) и направление, откуда дует ветер: С - северный, СВ - северо-восточный, В - восточный, ЮВ - юго-восточный, Ю - южный, ЮЗ - юго-западный, З - западный, СЗ - северо-западный.
Видимость - горизонтальная дальность видимости в метрах или километрах. При видимости от 1 до 10 км при отсутствии осадков обычно наблюдается дымка, при ухудшении видимости до 1 км и менее - туман. В сухую погоду видимость может ухудшаться дымом, пылью или мглою.
Явления - указаны атмосферные явления, наблюдавшиеся в срок или в последний час перед сроком; фигурными скобками обозначены явления, наблюдавшиеся между сроками (за 1-3 часа до срока); квадратными скобками обозначены град или гололедные отложения с указанием их диаметра в мм.
Облачность - указаны через наклонную черту общая и нижняя облачность в баллах и высота нижней границы облаков в метрах; квадратными скобками обозначены формы облаков: Ci - перистые, Cs - перисто-слоистые, Cc - перисто-кучевые, Ac - высококучевые, As - высокослоистые, Sc - слоисто-кучевые, Ns - слоисто-дождевые, Cu - кучевые, Cb - кучево-дождевые. Подробнее классификацию облаков см. в Атласе облаков (PDF).
T - Температура воздуха - температура, измеренная на высоте 2 м над землей.
Td - Температура точки росы - температура, при понижении до которой содержащийся в воздухе водяной пар достигнет насыщения.
f - Относительная влажность воздуха - влажноcть воздуха, измеренная на высоте 2 м над землей.
Te - Эффективная температура - температура, которую ощущает одетый по сезону человек в тени. Характеристика душности погоды. При расчете учитывается влияние влажности воздуха и скорости ветра на теплоощущения человека.
Tes - Эффективная температура на солнце - температура, которую ощущает человек, с поправкой на солнечный нагрев. Характеристика знойности погоды. Зависит от высоты солнца над горизонтом, облачности и скорости ветра. Ночью, в пасмурную погоду, а также при ветре 12 м/с и более поправка равна нулю.
P - Атмосферное давление - приведенное к уровню моря атмосферное давление.
Po - Атмосферное давление - измеренное на уровне метеостанции атмосферное давление.
Tmin - Минимальная температура - минимум температуры воздуха на высоте 2 м над землей.
Tmax - Максимальная температура - максимум температуры воздуха на высоте 2 м над землей.
R - Количество осадков - Количество выпавших осадков за период времени, мм. При наведении курсора мыши на число - период времени, за который выпало указанное количество осадков.
R24 - Количество осадков - Количество выпавших осадков за 24 часа, мм.
S - Снежный покров - Высота снежного покрова, см. При наведении курсора мыши на число - состояние снежного покрова и степень покрытия местности в баллах.